Lexington Weather

Lexington, Massachusetts, USA

43°F
1/23/2020 12:17pm 
  • Lexington Conditions: Mostly cloudy
  • Temperature: 42.6°F / 5.9°CWarmer 4.1°F than last hour.
  • Dew Point: 21.2°FDecreased 1.6°Fsince last hour.
  • Relative Humidity: 42%Decreased 11.0% since last hour.
  • Wind: Calm, 10-min avg: Calm, gust: 5 mph
  • Barometer: 30.30 inFalling 0.03  inHg/hr Falling Slowly
  • Visibility: 10 miles
  • Rain Today: 0.01 in
  •   

Regional Weather Roundup
for Boston / Norton, MA

        
000
ASUS41 KBOX 231201
RWRBOX

REGIONAL WEATHER ROUNDUP
NATIONAL WEATHER SERVICE BOSTON/NORTON MA
700 AM EST THU JAN 23 2020

NOTE:  "FAIR" INDICATES FEW OR NO CLOUDS BELOW 12,000 FEET WITH NO 
SIGNIFICANT WEATHER AND/OR OBSTRUCTIONS TO VISIBILITY.

MAZALL-231300-
EASTERN MASSACHUSETTS
  
CITY           SKY/WX    TMP DP  RH WIND       PRES   REMARKS
BOSTON         FAIR      28  16  60 SW5       30.38R WCI  23          
6HR MIN TEMP:  26; 6HR MAX TEMP:  31;                                

BEVERLY        FAIR      17  11  77 SW5       30.35R WCI  10          
LAWRENCE       FAIR      15  10  80 CALM      30.37R                  
BEDFORD        FAIR      11   7  84 CALM      30.36R                  
BLUE HILL        N/A     24  15  68 SW15      30.33R WCI  11          
NORWOOD        FAIR      12   4  70 CALM      30.39R                  
MARSHFIELD     NOT AVBL                                               
PLYMOUTH       FAIR      20  16  84 SW5       30.39R WCI  13          
TAUNTON        FAIR      10   7  87 CALM      30.39R                  
NEW BEDFORD    FAIR      15  11  83 CALM      30.39R                  
$$

MAZALL-231300-
CAPE COD AND THE ISLANDS
  
CITY           SKY/WX    TMP DP  RH WIND       PRES   REMARKS
FALMOUTH       CLEAR     16  14  93 CALM      30.39R                  
HYANNIS        NOT AVBL                                               
CHATHAM        FAIR      32  30  92 SW6       30.41R WCI  26          
PROVINCETOWN   FAIR      33  26  75 SW10      30.39R WCI  25          
NANTUCKET      FAIR      33  27  78 SW8       30.40S WCI  26          
MARTHAS VNYRD  FAIR      13   9  84 W3        30.40R                  
$$
 
MAZALL-231300-
CENTRAL AND WESTERN MASSACHUSETTS
  
CITY           SKY/WX    TMP DP  RH WIND       PRES   REMARKS
WORCESTER      FAIR      22  12  65 SW10      30.31R WCI  11          
6HR MIN TEMP:  22; 6HR MAX TEMP:  29;                                

FITCHBURG      FAIR       9   5  84 CALM      30.34R                  
ORANGE         FAIR       2  -4  76 CALM      30.37R                  
SPRINGFIELD    NOT AVBL                                               
WESTFIELD      CLEAR      7   3  85 CALM      30.38                   
NORTH ADAMS    FAIR       4  -1  80 CALM      30.39R                  
PITTSFIELD     FAIR       8   2  76 CALM      30.32R                  
$$
 
RIZALL-231300-
RHODE ISLAND
  
CITY           SKY/WX    TMP DP  RH WIND       PRES   REMARKS
PROVIDENCE     FAIR      22  17  81 CALM      30.41R                  
6HR MIN TEMP:  19; 6HR MAX TEMP:  24;                                

NEWPORT        FAIR      30  23  75 W3        30.40                   
BLOCK ISLAND   FAIR      29  24  82 SW8       30.41R WCI  21          
SMITHFIELD     FAIR      15  13  91 SW5       30.37R WCI   8          
WESTERLY       FAIR      18  12  77 CALM      30.42R                  
$$
 
CTZALL-231300-
CONNECTICUT
  
CITY           SKY/WX    TMP DP  RH WIND       PRES   REMARKS
BRADLEY INTL   FAIR      10   6  84 CALM      30.39R                  
6HR MIN TEMP:   8; 6HR MAX TEMP:  17;                                

HARTFORD       FAIR      16  11  80 CALM      30.41R                  
BRIDGEPORT     FAIR      21  15  78 CALM      30.40S                  
DANBURY        FAIR      11   8  88 CALM      30.39R                  
GROTON         NOT AVBL                                               
NEW HAVEN      FAIR      17  12  80 CALM      30.40R                  
CHESTER        NOT AVBL                                               
MERIDEN        FAIR      13   9  84 CALM      30.40R                  
WILLIMANTIC    FAIR      10   5  80 CALM      30.42R                  
OXFORD         FAIR      15  13  91 CALM      30.36S                  
$$

MEZ002-015-021-024-NHZ003-005-008-011-012-014-VTZ005-008-231300-
NORTHERN NEW ENGLAND
  
CITY           SKY/WX    TMP DP  RH WIND       PRES   REMARKS
PORTLAND ME    FAIR      17  10  74 CALM      30.32R                  
6HR MIN TEMP:  16; 6HR MAX TEMP:  28;                                

BANGOR ME      MOCLDY     5   4  95 CALM      30.30R                  
CONCORD NH     FAIR       5   0  79 CALM      30.34R                  
MANCHESTER NH  FAIR      10   5  80 CALM      30.33R                  
NASHUA NH      FAIR       6   4  91 CALM      30.35R                  
PORTSMOUTH NH  PTCLDY    15  13  90 SW3       30.32R                  
JAFFREY NH     FAIR       7   5  91 S7        30.30R WCI  -5          
KEENE NH       FAIR       0  -3  87 CALM      30.38R                  
BURLINGTON VT  FAIR      22  13  68 S3        30.33R                  
MT. WASHINGTON NOT AVBL                                               
$$

NYZ052-076-231300-
EASTERN NEW YORK
  
CITY           SKY/WX    TMP DP  RH WIND       PRES   REMARKS
ALBANY         FAIR      11   6  81 CALM      30.39S                  
6HR MIN TEMP:  11; 6HR MAX TEMP:  18;                                

NEW YORK CITY  FAIR      33  20  58 SW7       30.41R WCI  27          
6HR MIN TEMP:  30; 6HR MAX TEMP:  36;                                

$$
 
ANZALL-231300-
MARINE OBSERVATIONS
  
STATION/POSITION TIME  TEMP    WIND        PRES    VSBY  WAVE
                       AIR SEA DIR/SP/G                  HT/PER
                 (UTC) (F)     (DEG/KT/KT) (MB)    (MI)  (FT/S)
BOSTON BUOY      1050   34 42  190/ 10/ 10 1027.4          1/10
BUZZARDS BAY     1100   37     220/  9/  9 1029.5R
NANTUCKET SOUND  1140                        N/A           0
MASS BAY-STELLWA 1104   35 41  230/ 12/ 14 1025.9R  1 7/8  1/ 3
ISLE OF SHOALS   1100   31     240/ 11/ 12 1026.7R
S OF BLOCK IS    1130      45                N/A           2/10
$$

......................KEY.........................
  SKY/WX - SKY CONDITION/PRESENT WEATHER
  TMP    - TEMPERATURE IN FAHRENHEIT
  DWPT   - DEWPOINT IN FAHRENHEIT
  RH     - RELATIVE HUMIDITY IN PERCENT
  WIND   - DIRECTION AND SPEED IN MPH
  PRES   - MEAN SEA LEVEL PRESSURE IN INCHES OF HG
  WCI    - WIND CHILL INDEX
  VSB    - VISIBILITY IN MILES
  HX     - HEAT INDEX
  TC     - TEMPERATURE IN CELSIUS
  VRB    - VARIABLE WIND DIRECTION
  N/A    - NOT AVAILABLE
  
      

Other recent Regional Weather Roundups

Thu Jan 23, 12:10pm

Thu Jan 23, 12:01pm

Thu Jan 23, 11:10am

Thu Jan 23, 11:00am

Thu Jan 23, 10:10am

Thu Jan 23, 10:00am

Thu Jan 23, 9:10am

Thu Jan 23, 9:00am

Thu Jan 23, 8:10am

Thu Jan 23, 8:00am

Thu Jan 23, 7:10am

Thu Jan 23, 6:10am

Thu Jan 23, 6:00am

Thu Jan 23, 5:10am

Thu Jan 23, 5:00am

Thu Jan 23, 4:10am

Thu Jan 23, 4:01am

Thu Jan 23, 3:10am

Thu Jan 23, 3:00am

Thu Jan 23, 2:10am

Thu Jan 23, 2:00am

Thu Jan 23, 1:10am

Thu Jan 23, 1:00am

Thu Jan 23, 12:10am

Thu Jan 23, 12:00am

Wed Jan 22, 11:10pm

Wed Jan 22, 11:01pm

Wed Jan 22, 10:10pm

Wed Jan 22, 10:00pm

Wed Jan 22, 9:10pm

Wed Jan 22, 9:00pm

Wed Jan 22, 8:10pm

Wed Jan 22, 8:01pm

Wed Jan 22, 7:10pm

Wed Jan 22, 7:00pm

Wed Jan 22, 6:10pm

Wed Jan 22, 6:01pm

Wed Jan 22, 5:10pm

Wed Jan 22, 5:00pm

Wed Jan 22, 4:10pm

Wed Jan 22, 4:00pm

Wed Jan 22, 3:10pm

Wed Jan 22, 3:00pm

Wed Jan 22, 2:10pm

Wed Jan 22, 2:00pm

Wed Jan 22, 1:10pm

Wed Jan 22, 1:00pm

Wed Jan 22, 12:10pm

Wed Jan 22, 12:00pm

Wed Jan 22, 11:10am

Wed Jan 22, 11:00am

Wed Jan 22, 10:10am

Wed Jan 22, 10:01am

Wed Jan 22, 9:10am

Wed Jan 22, 9:00am

Wed Jan 22, 8:10am

Wed Jan 22, 8:00am

Wed Jan 22, 7:10am

Wed Jan 22, 7:00am

Wed Jan 22, 6:10am

Wed Jan 22, 6:00am

Wed Jan 22, 5:10am

Wed Jan 22, 5:00am

Wed Jan 22, 4:10am

Wed Jan 22, 4:00am

Wed Jan 22, 3:10am

Wed Jan 22, 3:01am

Wed Jan 22, 2:10am

Wed Jan 22, 2:00am

Wed Jan 22, 1:10am

Wed Jan 22, 1:00am

Wed Jan 22, 12:10am

Wed Jan 22, 12:00am

Tue Jan 21, 11:10pm

Tue Jan 21, 11:00pm

Tue Jan 21, 10:10pm

Tue Jan 21, 10:00pm

Tue Jan 21, 9:10pm

Tue Jan 21, 9:01pm

Tue Jan 21, 8:10pm

Tue Jan 21, 8:00pm

Tue Jan 21, 7:10pm

Tue Jan 21, 7:00pm

Tue Jan 21, 6:10pm

Tue Jan 21, 6:01pm

Tue Jan 21, 5:10pm

Tue Jan 21, 5:00pm

Tue Jan 21, 4:10pm

Tue Jan 21, 4:00pm

Tue Jan 21, 3:10pm

Tue Jan 21, 3:01pm

Tue Jan 21, 2:10pm

Tue Jan 21, 2:00pm

Tue Jan 21, 1:10pm

Tue Jan 21, 1:00pm

Tue Jan 21, 12:10pm

Tue Jan 21, 12:00pm

Tue Jan 21, 11:10am

Tue Jan 21, 11:00am

Tue Jan 21, 10:10am

Tue Jan 21, 10:00am

Tue Jan 21, 9:10am

Tue Jan 21, 9:00am

Tue Jan 21, 8:10am

Tue Jan 21, 8:00am

Tue Jan 21, 7:10am

Tue Jan 21, 7:00am

Tue Jan 21, 6:10am

Tue Jan 21, 6:00am

Tue Jan 21, 5:10am

Tue Jan 21, 5:00am

Tue Jan 21, 4:10am

Tue Jan 21, 4:00am

Tue Jan 21, 3:10am

Tue Jan 21, 3:00am

Tue Jan 21, 2:10am

Tue Jan 21, 2:01am

Tue Jan 21, 1:10am

Tue Jan 21, 1:00am

Tue Jan 21, 12:10am

Tue Jan 21, 12:00am

Mon Jan 20, 11:10pm

Mon Jan 20, 11:00pm

Mon Jan 20, 10:10pm

Mon Jan 20, 10:00pm

Mon Jan 20, 9:10pm

Mon Jan 20, 9:00pm

Mon Jan 20, 8:10pm

Mon Jan 20, 8:00pm

Mon Jan 20, 7:10pm

Mon Jan 20, 7:00pm

Mon Jan 20, 6:10pm

Mon Jan 20, 6:00pm

Mon Jan 20, 5:10pm

Mon Jan 20, 5:00pm

Mon Jan 20, 4:10pm

Mon Jan 20, 4:01pm

Mon Jan 20, 3:10pm

Mon Jan 20, 3:00pm

Mon Jan 20, 2:10pm

Mon Jan 20, 2:00pm

Mon Jan 20, 1:10pm

Mon Jan 20, 1:00pm

Meta data:

ID: e1c027ff-1499-432e-b93f-f11e7113952e
Link: https://api.weather.gov/products/e1c027ff-1499-432e-b93f-f11e7113952e